Volver al catálogo

STARLINK-32423

ActivoComunicacionesVLEO
NORAD 61218·PAYLOAD·🇺🇸 United States

Lanzado Sep 20, 2024 desde Vandenberg Space Force Base

Loading…

Próximos Pases (próximas 24 horas)

TLE

ActualizadoSource: CelesTrak SupGP

Época: Sep 15, 2026, 02:11 UTC

1 61218C 24171U   26258.09145833 -.00030766  00000+0 -98934-3 0  2586
2 61218  53.1578 161.7606 0001359  89.3958 137.4220 15.31717951    16

Sigue STARLINK-32423 en tiempo real con AllMySat

Download on the App Store